[[{"header":{"parameterUnit":"m.s-1","parameterCategory":1,"la1":30.2991,"la2":30.254,"lo1":-89.0895,"lo2":-89.0444,"dy":0.0017,"dx":0.0017,"nx":28,"ny":28,"refTime":"2024-07-31T09:00:00:Z","depth":0,"parameterNumber":2,"parameterNumberName":"U-component_of_WINDS"},"data":[0,0,0,0,0,0,0,0,0,0,0,0,0,0,0,0,0,0,0,0,0,0,0,0,0,0,0,0,0,0,0,0,0,0,0,0,0,0,0,0,0,0,0,0,0,0,0,0,0,0,0,0,0,0,0,0,0,0,4.4666,4.4667,0,4.479,4.4791,4.4792,4.4709,4.4705,4.4701,4.4698,4.4827,4.4834,4.4841,0,0,0,0,0,0,0,0,0,0,0,0,0,4.4357,4.4363,4.4665,4.4667,4.4669,4.4789,4.4791,4.4793,4.471,4.4705,4.47,4.4696,4.4825,4.4833,4.4841,0,0,0,0,0,0,0,0,0,0,0,0,0,4.4487,4.4365,4.4665,4.4641,4.4641,4.4789,4.4791,4.4793,4.471,4.4705,4.4699,4.4694,4.4822,4.4832,4.4843,4.5022,0,0,4.4875,4.4879,0,0,0,0,0,0,0,0,4.448,4.4498,4.4643,4.4643,4.4643,4.4728,4.473,4.487,4.4712,4.4684,4.4698,4.4691,4.4799,4.4811,4.4847,4.5028,4.5033,4.4876,4.4882,4.4886,4.4889,0,0,0,0,0,0,0,4.4471,4.4493,4.4714,4.4646,4.4645,4.4625,4.4637,4.4756,4.4772,4.4686,4.468,4.4696,4.4797,4.4837,4.4849,4.5035,4.4875,4.4885,4.4891,4.4895,4.5366,4.5372,0,0,0,0,0,0,4.4464,4.4486,4.4711,4.4718,4.4545,4.4635,4.4649,4.4706,4.4771,4.4775,4.4701,4.4692,4.4822,4.4837,4.4853,4.5065,4.4886,4.4896,4.4902,4.536,4.5368,4.5375,0,0,0,0,0,0,4.4457,4.4485,4.4706,4.46,4.4627,4.4646,4.4712,4.4712,4.4751,4.4782,4.4784,4.4738,4.4818,4.4839,4.498,4.5068,4.4901,4.491,4.5353,4.5363,4.5371,4.5491,0,0,0,0,0,0,4.4449,4.4483,4.4551,4.4603,4.4633,4.483,4.4717,4.4718,4.4769,4.4758,4.4817,4.4821,4.4815,4.4964,4.499,4.508,4.4919,4.5345,4.5357,4.5368,4.548,4.5504,4.5524,0,0,0,0,0,4.4438,4.4581,4.4555,4.4583,4.4719,4.4835,4.4853,4.4842,4.4777,4.4845,4.4864,4.482,4.5055,4.498,4.5008,4.5102,4.5339,4.5354,4.5367,4.547,4.5499,4.5524,0,0,0,0,0,0,4.4541,4.4588,4.4559,4.4723,4.4776,4.4821,4.4907,4.4874,4.4947,4.4934,4.4917,4.4932,4.5078,4.5105,4.502,4.5277,4.5187,4.5207,4.5255,4.5283,4.5305,4.5295,4.4927,0,0,0,0,0,4.4583,4.4673,4.4709,4.485,4.4878,4.4888,4.4939,4.4925,4.498,4.5002,4.5032,4.5086,4.5172,4.5229,4.531,4.5483,4.5494,4.5562,4.5584,4.5602,4.562,4.571,4.574,4.542,4.542,4.542,0,0,4.467,4.4707,4.4765,4.4872,4.4911,4.5005,4.4908,4.5012,4.5081,4.5018,4.5152,4.5176,4.5236,4.5393,4.5463,4.5419,4.571,4.562,4.5634,4.5642,4.5728,4.5758,4.5785,4.543,4.5428,4.5427,0,0,4.4876,4.4914,4.5034,4.5075,4.5135,4.514,4.5169,4.522,4.5232,4.5367,4.532,4.5403,4.5552,4.5595,4.5637,4.5858,4.5818,4.5885,4.6001,4.609,4.6115,4.6137,4.6213,4.6241,4.5902,4.5903,4.5903,0,4.4977,4.5116,4.5101,4.5207,4.5255,4.5201,4.5322,4.5362,4.5447,4.5481,4.5429,4.5613,4.565,4.5815,4.5868,4.5905,4.5936,4.5877,4.6112,4.6135,4.6155,4.6228,4.6257,4.591,4.5909,4.5908,4.5908,0,4.5236,4.5333,4.5423,4.5504,4.5561,4.5675,4.5676,4.5737,4.5718,4.5729,4.5865,4.5907,4.5994,4.6033,4.6017,4.6195,4.6165,4.6114,4.6022,4.6193,4.6261,4.6289,4.5921,4.5918,4.5916,4.5914,0,0,4.5512,4.558,4.5613,4.5648,4.5709,4.5784,4.5894,4.5978,4.6029,4.6089,4.618,4.6307,4.6258,4.6306,4.6294,4.6372,4.6541,4.631,4.6311,4.635,4.6737,4.6774,4.6807,4.6515,4.6521,4.6525,4.6731,0,4.5719,4.5911,4.5899,4.6079,4.6167,4.6116,4.6212,4.626,4.6273,4.6349,4.6364,4.6452,4.6383,4.6411,4.6486,4.6504,4.6618,4.649,4.6599,4.6603,4.6583,4.6842,4.6882,4.7075,4.6758,4.6763,4.6766,0,4.5988,4.6054,4.6242,4.6288,4.6324,4.6411,4.6485,4.656,4.6612,4.6616,4.6668,4.6642,4.6753,4.6659,4.6811,4.6724,4.6768,4.6783,4.679,4.6799,4.6694,4.6856,4.7137,4.7165,4.6808,4.6805,4.6802,0,4.6167,4.6304,4.6433,4.6465,4.6522,4.6583,4.661,4.6657,4.6707,4.6773,4.6805,4.6883,4.6926,4.6987,4.6982,4.6915,4.7135,4.7042,4.714,4.714,4.7188,4.7185,4.7478,4.722,4.7219,4.7219,4.7218,0,4.6399,4.6516,4.6514,4.6593,4.6722,4.6707,4.6835,4.6855,4.6897,4.6979,4.6941,4.7018,4.7009,4.7087,4.7085,4.7209,4.7229,4.7234,4.7232,4.7237,4.7236,4.7264,4.725,4.7227,4.7225,4.7223,4.7222,0,4.662,4.6624,4.6761,4.6803,4.6816,4.6909,4.6945,4.702,4.7028,4.7133,4.7156,4.717,4.726,4.7262,4.7366,4.7364,4.7515,4.7499,4.7497,4.7493,4.759,4.758,4.791,4.7951,4.7669,4.7672,4.7674,0,4.6768,4.6856,4.6906,4.6958,4.6988,4.7072,4.7122,4.7111,4.7165,4.723,4.7297,4.7383,4.7451,4.7596,4.7616,4.7694,4.7678,4.7788,4.7689,4.769,4.7677,4.7671,4.7678,4.7807,4.781,4.7813,4.7815,0,4.7028,4.7024,4.7098,4.7173,4.7233,4.7292,4.7346,4.739,4.7385,4.7447,4.7538,4.759,4.7694,4.7779,4.7855,4.7882,4.7848,4.7846,4.7872,4.7877,4.7871,4.7873,4.7547,4.7838,4.7836,4.7834,4.7833,4.7832,4.7215,4.729,4.7336,4.7419,4.7458,4.7508,4.758,4.7597,4.7672,4.7754,4.7744,4.7844,4.7892,4.7989,4.8023,4.81,4.8062,4.8101,4.8111,4.812,4.8129,4.786,4.8114,4.8114,4.8113,4.8113,4.8112,0,4.7471,4.7498,4.7574,4.7649,4.7714,4.7675,4.7732,4.7789,4.7877,4.7925,4.7991,4.8094,4.8176,4.8201,4.8279,4.8337,4.8323,4.8358,4.8352,4.8358,4.816,4.8128,4.8367,4.8367,4.8367,4.8367,4.8367,4.8367,4.7611,4.7735,4.7737,4.7879,4.7905,4.8002,4.8037,4.8083,4.812,4.8236,4.8303,4.8319,4.8357,4.8437,4.851,4.8515,4.8545,4.8586,4.8585,4.8399,4.8373,4.8348,4.8318,4.8593,4.8594,4.8776,4.8778,4.8779]},{"header":{"parameterUnit":"m.s-1","parameterCategory":1,"la1":30.2991,"la2":30.254,"lo1":-89.0895,"lo2":-89.0444,"dy":0.0017,"dx":0.0017,"nx":28,"ny":28,"refTime":"2024-07-31T09:00:00:Z","depth":0,"parameterNumber":3,"parameterNumberName":"V-component_of_WINDS"},"data":[0,0,0,0,0,0,0,0,0,0,0,0,0,0,0,0,0,0,0,0,0,0,0,0,0,0,0,0,0,0,0,0,0,0,0,0,0,0,0,0,0,0,0,0,0,0,0,0,0,0,0,0,0,0,0,0,0,0,0.7827,0.7827,0,0.7843,0.7843,0.7844,0.7829,0.7829,0.7828,0.7827,0.7845,0.7846,0.7847,0,0,0,0,0,0,0,0,0,0,0,0,0,0.7781,0.7782,0.7827,0.7827,0.7827,0.7843,0.7844,0.7844,0.7829,0.7829,0.7828,0.7827,0.7845,0.7846,0.7847,0,0,0,0,0,0,0,0,0,0,0,0,0,0.78,0.7782,0.7827,0.7822,0.7821,0.7843,0.7844,0.7844,0.7829,0.7828,0.7828,0.7827,0.7844,0.7846,0.7847,0.7875,0,0,0.7852,0.7853,0,0,0,0,0,0,0,0,0.7799,0.7801,0.7822,0.7822,0.7822,0.7833,0.7834,0.7854,0.783,0.7826,0.7827,0.7826,0.7842,0.7844,0.7849,0.7876,0.7877,0.7852,0.7853,0.7854,0.7854,0,0,0,0,0,0,0,0.7797,0.7801,0.7833,0.7822,0.7822,0.7818,0.782,0.7838,0.7839,0.7827,0.7826,0.7828,0.7842,0.7847,0.7849,0.7877,0.7852,0.7854,0.7855,0.7855,0.7926,0.7926,0,0,0,0,0,0,0.7797,0.78,0.7833,0.7834,0.7808,0.782,0.7822,0.783,0.7839,0.7839,0.7828,0.7827,0.7845,0.7847,0.785,0.7881,0.7854,0.7855,0.7856,0.7925,0.7926,0.7927,0,0,0,0,0,0,0.7796,0.78,0.7832,0.7816,0.782,0.7822,0.7832,0.7831,0.7837,0.784,0.784,0.7834,0.7845,0.7848,0.7868,0.7882,0.7856,0.7858,0.7924,0.7925,0.7926,0.7946,0,0,0,0,0,0,0.7795,0.78,0.7811,0.7817,0.7821,0.7851,0.7832,0.7832,0.784,0.7838,0.7846,0.7846,0.7844,0.7866,0.787,0.7884,0.7859,0.7922,0.7924,0.7926,0.7944,0.7948,0.7951,0,0,0,0,0,0.7793,0.7816,0.7811,0.7815,0.7835,0.7852,0.7854,0.7851,0.7841,0.7851,0.7853,0.7846,0.788,0.7868,0.7873,0.7887,0.7922,0.7924,0.7926,0.7943,0.7947,0.7951,0,0,0,0,0,0,0.7812,0.7817,0.7812,0.7837,0.7844,0.7849,0.7863,0.7857,0.7867,0.7865,0.7861,0.7863,0.7884,0.7888,0.7875,0.7913,0.7899,0.7902,0.791,0.7915,0.7918,0.7917,0.786,0,0,0,0,0,0.7819,0.7833,0.7836,0.7858,0.7862,0.7862,0.7869,0.7866,0.7873,0.7876,0.7879,0.7887,0.7898,0.7907,0.7918,0.7944,0.7945,0.7956,0.7959,0.7962,0.7965,0.7977,0.7982,0.7934,0.7934,0.7934,0,0,0.7835,0.7839,0.7848,0.7862,0.7867,0.7881,0.7864,0.788,0.789,0.7878,0.7898,0.7901,0.7908,0.7931,0.7942,0.7935,0.7978,0.7965,0.7967,0.7968,0.798,0.7985,0.7989,0.7935,0.7935,0.7935,0,0,0.7869,0.7874,0.7892,0.7897,0.7904,0.7903,0.7908,0.7913,0.7914,0.7934,0.7925,0.7936,0.7958,0.7963,0.7968,0.8002,0.7995,0.8006,0.8024,0.8036,0.804,0.8044,0.8055,0.8059,0.8008,0.8009,0.8009,0,0.7887,0.7907,0.7902,0.7918,0.7924,0.7913,0.7931,0.7936,0.7947,0.7951,0.7943,0.7968,0.7973,0.7996,0.8004,0.8009,0.8014,0.8005,0.804,0.8043,0.8046,0.8057,0.8061,0.801,0.801,0.8009,0.8009,0,0.7928,0.7942,0.7956,0.7965,0.7973,0.799,0.7987,0.7996,0.7991,0.7991,0.801,0.8015,0.8026,0.8031,0.8028,0.8054,0.8049,0.8041,0.8026,0.8052,0.8062,0.8066,0.8011,0.8011,0.8011,0.801,0,0,0.7977,0.7982,0.7987,0.799,0.7996,0.8007,0.8022,0.8033,0.804,0.8047,0.8059,0.8076,0.8068,0.8074,0.8071,0.8081,0.8106,0.8071,0.8071,0.8077,0.8134,0.814,0.8145,0.8101,0.8102,0.8103,0.8133,0,0.8011,0.8038,0.8033,0.8059,0.8071,0.8059,0.8073,0.8078,0.8077,0.8087,0.8087,0.8099,0.8087,0.8091,0.8101,0.8101,0.8118,0.8099,0.8112,0.8113,0.8111,0.815,0.8157,0.8186,0.8137,0.8137,0.8138,0,0.8055,0.8062,0.8089,0.8091,0.8096,0.8108,0.8116,0.8126,0.813,0.8129,0.8135,0.8129,0.8144,0.8129,0.8148,0.8136,0.8141,0.8142,0.8143,0.8144,0.8127,0.8152,0.8195,0.8199,0.8144,0.8144,0.8143,0,0.8086,0.8103,0.8121,0.8124,0.8128,0.8136,0.8138,0.8142,0.8147,0.8154,0.8158,0.8167,0.8172,0.8178,0.8175,0.8164,0.8194,0.8179,0.8194,0.8194,0.8201,0.82,0.8245,0.8204,0.8204,0.8204,0.8204,0,0.8125,0.8142,0.8135,0.8146,0.8164,0.8157,0.8175,0.8176,0.8178,0.8189,0.818,0.819,0.8184,0.8193,0.8191,0.8206,0.8209,0.8208,0.8207,0.8209,0.8209,0.8212,0.821,0.8205,0.8205,0.8205,0.8205,0,0.8164,0.816,0.8178,0.8179,0.818,0.8193,0.8193,0.8203,0.8201,0.8214,0.8217,0.8215,0.8225,0.8221,0.8233,0.8231,0.8251,0.8247,0.8249,0.8248,0.8262,0.8261,0.831,0.8315,0.8272,0.8273,0.8273,0,0.8189,0.8201,0.8202,0.8208,0.821,0.822,0.8225,0.8219,0.8225,0.823,0.8239,0.8248,0.8255,0.8272,0.8271,0.8279,0.8276,0.8292,0.8277,0.8278,0.8275,0.8274,0.8275,0.8296,0.8296,0.8296,0.8297,0,0.8233,0.8229,0.8238,0.8244,0.8251,0.8256,0.8261,0.8266,0.826,0.8267,0.8276,0.8282,0.8292,0.8301,0.8308,0.831,0.8302,0.8301,0.8305,0.8307,0.8307,0.8306,0.8257,0.83,0.83,0.83,0.83,0.83,0.8265,0.8274,0.8276,0.8285,0.8287,0.8291,0.83,0.8298,0.8306,0.8314,0.831,0.8321,0.8323,0.8331,0.8334,0.8342,0.8336,0.8341,0.8342,0.8344,0.8345,0.8306,0.8343,0.8343,0.8343,0.8343,0.8343,0,0.8308,0.8308,0.8316,0.8321,0.8328,0.8319,0.8323,0.8329,0.8338,0.8341,0.8348,0.8358,0.8366,0.8365,0.8372,0.8379,0.8376,0.8381,0.838,0.8381,0.8351,0.8347,0.8384,0.8384,0.8384,0.8384,0.8384,0.8384,0.8331,0.8346,0.8343,0.8358,0.8358,0.8369,0.8371,0.8375,0.8376,0.8388,0.8395,0.8393,0.8394,0.8401,0.8408,0.8407,0.841,0.8417,0.8415,0.8387,0.8383,0.8379,0.8375,0.8418,0.8418,0.8444,0.8444,0.8444]}]]